Вернуться в каталог

SL-8 DEB

АктивенLEO
NORAD 39702·DEBRIS·🇷🇺 Russia

Запущен Feb 12, 1991 с Plesetsk Cosmodrome

Loading…

Ближайшие Пролёты (ближайшие 24 часа)

TLE

УстаревшееSource: Space-Track

Эпоха: Sep 5, 2026, 21:18 UTC

1 39702U 91009DR  26248.88804280  .00000174  00000-0  18241-2 0  9990
2 39702  74.2297  75.4594 0187928  94.7251 267.5269 12.14780750467314

Отслеживайте SL-8 DEB в реальном времени с AllMySat

Download on the App Store